Location: Bu�n Treun
(12.1333°N, 108.3167°E)
Time: 22:52:04
(UTC+00:00)

IUS-13 SRM-1 - Pass Details

Date: 13 July 2020
Orbit: 271 x 22873 km, 26.9° (Epoch: 14 August)

Event Time Altitude Azimuth Distance (km) Brightness Sun altitude
Exits shadow 21:22:05 35° 261° (W) 724 2.4 -15.8°
Maximum altitude 21:23:05 66° 332° (NNW) 397 1.5 -15.6°
Drops below altitude 10° 21:25:02 10° 57° (ENE) 1,102 5.3 -15.2°
Sets 21:26:28 0° 61° (ENE) 1,871 7.0 -14.8°
